Regional Weather Roundup
Issued by NWS

Home | Current Version | Previous Version | Text Only | Print | Product List | Glossary On
Versions: 1 2 3 4 5 6 7 8 9 10 11 12 13 14 15 16 17 18 19 20 21 22 23 24 25 26 27
000
ASUS43 KDMX 241807
RWRIA

WEATHER ROUNDUP FOR IOWA
NATIONAL WEATHER SERVICE DES MOINES IA
100 PM CDT FRI OCT 24 2014

NOTE: "FAIR" INDICATES FEW OR NO CLOUDS BELOW 12,000 FEET WITH NO
SIGNIFICANT WEATHER AND/OR OBSTRUCTIONS TO VISIBILITY.

* - THESE STATIONS ARE NOT NWS STATIONS...THUS NOT UNDER NWS
QUALITY CONTROL.  THEY ALSO DO NOT REPORT WEATHER SUCH
AS PRECIPITATION OR FOG.

IAZ001>003-012>014-020>022-031>034-043>046-241900-
   NORTHWEST IOWA

CITY           SKY/WX    TMP DP  RH WIND       PRES   REMARKS
CARROLL *      MOSUNNY   68  59  73 SW12G17   29.91F
CHEROKEE *     CLOUDY    66  57  71 SW8       29.90F
DENISON *      SUNNY     68  59  73 SW9       29.90S
LE MARS *      SUNNY     68  52  56 W5        29.91F
ORANGE CITY *  SUNNY     66  52  59 W6        29.91S
SHELDON *      SUNNY     66  52  59 NW6       29.90S
SIOUX CITY     MOSUNNY   70  51  51 VRB3      29.91F
6HR MIN TEMP:  52; 6HR MAX TEMP:  70;

SPENCER        CLOUDY    66  54  65 W9        29.90F
6HR MIN TEMP:  50; 6HR MAX TEMP:  66;

STORM LAKE *   SUNNY     68  55  64 W14       29.91F
$$

IAZ055>058-069>071-079>083-090>094-241900-
   SOUTHWEST IOWA

CITY           SKY/WX    TMP DP  RH WIND       PRES   REMARKS
ATLANTIC *     MOSUNNY   68  61  77 SW15      29.92F
AUDUBON *      MOSUNNY   66  57  72 SW10      29.94S
CLARINDA *     MOSUNNY   70  63  78 S13G20    29.95F
COUNCIL BLFS * MOSUNNY   70  64  83 SW7       29.92F
CRESTON *      CLOUDY    63  63 100 S16       29.95F FOG
HARLAN  *      SUNNY     68  63  83 SW9G15    29.96S
LAMONI         CLOUDY    60  59  96 S15       29.97F FOG
6HR MIN TEMP:  56; 6HR MAX TEMP:  60;

RED OAK *      MOSUNNY   70  63  78 SW10      29.94F
SHENANDOAH *   SUNNY     72  63  73 SW13      29.94F
$$

IAZ047>049-059>061-072>074-084-241900-
   CENTRAL IOWA

CITY           SKY/WX    TMP DP  RH WIND       PRES   REMARKS
AMES           CLOUDY    62  59  90 S8        29.92F FOG
6HR MIN TEMP:  54; 6HR MAX TEMP:  62;

ANKENY *       CLOUDY    63  61  94 S8G14     29.93S
CHARITON *     CLOUDY    61  59  94 S16       29.96F FOG
DES MOINES     CLOUDY    63  60  90 S14       29.93F FOG
6HR MIN TEMP:  59; 6HR MAX TEMP:  64;

GRINNELL*      CLOUDY    59  58  97 S13       29.94F FOG
KNOXVILLE *    CLOUDY    63  59  88 S13       29.94F FOG
MARSHALLTOWN   CLOUDY    60  59  96 S13       29.92F FOG
6HR MIN TEMP:  48; 6HR MAX TEMP:  60;

PELLA *        CLOUDY    62  60  96 S15       29.96F FOG
PERRY *        CLOUDY    68  61  77 SW10G16   29.92S
$$

IAZ004>006-015-016-023>025-035-036-241900-
   NORTH CENTRAL IOWA

CITY           SKY/WX    TMP DP  RH WIND       PRES   REMARKS
ALGONA *       CLOUDY    64  59  82 W9        29.90F
CLARION *      CLOUDY    63  63 100 SW9       29.90F FOG
ESTHERVILLE    PTSUNNY   64  53  67 W7        29.88F
6HR MIN TEMP:  47; 6HR MAX TEMP:  65;

FORT DODGE *   CLOUDY    66  57  72 SW10      29.91F
MASON CITY     CLOUDY    59  59 100 S8        29.92F FOG
6HR MIN TEMP:  46; 6HR MAX TEMP:  58;

FOREST CITY *  CLOUDY    59  59 100 S6        29.90F FOG
IOWA FALLS *   DRZL/FOG  59  59 100 S10       29.92F VSB 3/4
$$

IAZ007>011-017>019-026>030-037>042-050>054-066-241900-
   NORTHEAST IOWA

CITY           SKY/WX    TMP DP  RH WIND       PRES   REMARKS
CEDAR RAPIDS   FOG       56  56 100 S12       29.97F VSB 3/4
6HR MIN TEMP:  45; 6HR MAX TEMP:  56;

CHARLES CITY * FOG       54  54 100 S8        29.94F VSB 1/4
CLINTON *      PTSUNNY   59  54  82 S10       30.04F
DECORAH *      PTSUNNY   63  55  77 S13G24    29.90F
DUBUQUE        CLOUDY    55  54  96 S14       29.99F FOG
6HR MIN TEMP:  50; 6HR MAX TEMP:  55;

MONTICELLO *   PTSUNNY   59  57  94 S15       29.98F
OELWEIN *      CLOUDY    55  55 100 S16       29.94F FOG
WATERLOO       CLOUDY    55  55 100 S10       29.93F FOG
6HR MIN TEMP:  46; 6HR MAX TEMP:  55;

$$

IAZ064-065-067-068-078-241900-
   EAST CENTRAL IOWA

CITY           SKY/WX    TMP DP  RH WIND       PRES   REMARKS
DAVENPORT      MOSUNNY   63  51  65 S12       30.02F
6HR MIN TEMP:  50; 6HR MAX TEMP:  63;

IOWA CITY      CLOUDY    58  57  97 S14       30.01F
6HR MIN TEMP:  47; 6HR MAX TEMP:  58;

MT. PLEASANT * CLOUDY    58  57  99 S14       30.03F
MUSCATINE *    MOSUNNY   61  55  82 S10       30.01F
QUAD CITIES    MOSUNNY   64  53  67 S10       30.02F
6HR MIN TEMP:  50; 6HR MAX TEMP:  64;

$$

IAZ062-063-075>077-085>089-095>099-241900-
   SOUTHEAST IOWA

CITY           SKY/WX    TMP DP  RH WIND       PRES   REMARKS
BURLINGTON     CLOUDY    59  57  93 SW12      30.03F
6HR MIN TEMP:  53; 6HR MAX TEMP:  60;

FAIRFIELD *    PTSUNNY   63  57  82 S15       29.99F
FORT MADISON * CLOUDY    59  59 100 SW9       30.05F FOG
KEOKUK *       FOG       55  55 100 S10       30.04F VSB 1/4
OSKALOOSA *    CLOUDY    59  59  98 S14       29.98F FOG
CENTERVILLE *  CLOUDY    59  59 100 S9G16     30.00F
OTTUMWA        CLOUDY    60  57  89 S14       29.98F
6HR MIN TEMP:  54; 6HR MAX TEMP:  60;

WASHINGTON *   CLOUDY    59  59 100 S12       30.00F
$$

ABBREVIATIONS USED IN REMARKS
   TC - TEMPERATURES IN CELSIUS
  WCI - WIND CHILL INDEX
   HX - HEAT INDEX
  VSB - VISIBILITY
$$




USA.gov is the U.S. government's official web portal to all federal, state and local government web resources and services.